Weather History for Douglas, WY

Change the Weather History Date:

Thursday, May 2, 2013

  Actual Average Record
Temperature  
Mean Temperature 37 °F 48 °F  
Max Temperature 53 °F 63 °F 81 °F (2000)
Min Temperature 21 °F 34 °F 17 °F (2005)
Degree Days  
Heating Degree Days 28 17  
Month to date heating degree days 62 34  
Since 1 July heating degree days 6828 6991  
Cooling Degree Days 0 0  
Month to date cooling degree days 0 0  
Year to date cooling degree days 0 0  
Moisture  
Dew Point 19 °F    
Average Humidity 56    
Maximum Humidity 92    
Minimum Humidity 19    
Precipitation  
Precipitation 0.00 in 0.08 in 0.13 in (2008)
Month to date precipitation 0.15 0.17  
Year to date precipitation 1.59 3.32  
Sea Level Pressure  
Sea Level Pressure 30.59 in    
Wind  
Wind Speed 7 mph (NW)    
Max Wind Speed 22 mph    
Max Gust Speed 30 mph    
Visibility 10 miles    
Events      
T = Trace of Precipitation, MM = Missing Value Source: NWS Daily Summary

Daily Weather History Graph

Daily Weather History Graph

Search for Another Location

Airport:

Trip Planner

Search our weather history database for the weather conditions in past years. The results will help you decide how hot, cold, wet, or windy it might be!

Date:

Astronomy

May. 02, 2013 Rise Set
Actual Time 5:54 AM MDT 8:03 PM MDT
Civil Twilight 5:23 AM MDT 8:34 PM MDT
Nautical Twilight 4:44 AM MDT 9:13 PM MDT
Astronomical Twilight 4:02 AM MDT 9:55 PM MDT
Moon 1:53 AM MDT (5/2) 12:46 PM MDT (5/2)
Length of Visible Light 15h 11m
Length of Day
14h 09m
Waning Gibbous, 47% of the Moon is Illuminated
May 2
Waning Gibbous
May 9
New
May 17
First Quarter
May 24
Full
May 31
Last Quarter

Hourly Weather History & Observations

Time (MDT) Temp. Windchill Dew Point Humidity Pressure Visibility Wind Dir Wind Speed Gust Speed Precip Events Conditions
12:53 AM 26.1 °F - 23.0 °F 88% 30.70 in 10.0 mi Calm Calm - N/A   Clear
1:53 AM 26.1 °F - 21.9 °F 84% 30.69 in 10.0 mi Calm Calm - N/A   Clear
2:53 AM 24.1 °F - 21.0 °F 88% 30.69 in 10.0 mi Calm Calm - N/A   Clear
3:53 AM 21.9 °F - 19.0 °F 89% 30.72 in 10.0 mi Calm Calm - N/A   Clear
4:53 AM 23.0 °F - 19.9 °F 88% 30.73 in 10.0 mi Calm Calm - N/A   Clear
5:53 AM 21.9 °F - 18.0 °F 85% 30.73 in 10.0 mi Calm Calm - N/A   Clear
6:53 AM 27.0 °F - 23.0 °F 85% 30.73 in 10.0 mi Calm Calm - N/A   Clear
7:53 AM 30.0 °F - 24.1 °F 79% 30.74 in 10.0 mi Calm Calm - N/A   Clear
8:53 AM 34.0 °F 29.8 °F 25.0 °F 70% 30.73 in 10.0 mi WNW 4.6 mph - N/A   Clear
9:53 AM 41.0 °F 32.2 °F 25.0 °F 53% 30.69 in 10.0 mi WNW 18.4 mph 24.2 mph N/A   Clear
10:53 AM 45.0 °F 38.2 °F 19.9 °F 37% 30.65 in 10.0 mi NW 15.0 mph 25.3 mph N/A   Partly Cloudy
11:53 AM 42.1 °F 35.7 °F 16.0 °F 35% 30.65 in 10.0 mi NW 11.5 mph 23.0 mph N/A   Overcast
12:53 PM 48.0 °F - 18.0 °F 30% 30.60 in 10.0 mi West 16.1 mph 25.3 mph N/A   Mostly Cloudy
1:53 PM 46.9 °F - 16.0 °F 29% 30.57 in 10.0 mi WNW 19.6 mph 25.3 mph N/A   Overcast
2:53 PM 51.1 °F - 14.0 °F 23% 30.53 in 10.0 mi NW 11.5 mph 25.3 mph N/A   Mostly Cloudy
3:53 PM 52.0 °F - 14.0 °F 22% 30.50 in 10.0 mi WNW 12.7 mph 21.9 mph N/A   Partly Cloudy
4:53 PM 53.1 °F - 12.9 °F 20% 30.47 in 10.0 mi NW 12.7 mph 21.9 mph N/A   Clear
5:53 PM 53.1 °F - 14.0 °F 21% 30.45 in 10.0 mi NNW 15.0 mph 18.4 mph N/A   Partly Cloudy
6:53 PM 51.1 °F - 16.0 °F 25% 30.44 in 10.0 mi NW 12.7 mph - N/A   Clear
7:53 PM 46.0 °F 43.1 °F 18.0 °F 33% 30.44 in 10.0 mi NW 5.8 mph - N/A   Clear
8:53 PM 39.0 °F 36.8 °F 19.9 °F 46% 30.45 in 10.0 mi NE 3.5 mph - N/A   Clear
9:53 PM 34.0 °F - 21.9 °F 61% 30.43 in 10.0 mi Calm Calm - N/A   Clear
10:53 PM 34.0 °F - 21.0 °F 59% 30.40 in 10.0 mi Calm Calm - N/A   Clear
11:53 PM 30.0 °F - 21.0 °F 69% 30.42 in 10.0 mi Calm Calm - N/A   Clear